(706) 295-7835

For Pilots

METAR

KRMG 011053Z AUTO 26006KT 10SM CLR M01/M06 A3009 RMK AO2 SLP190 T10111061

Location & Communications

Get detailed information about the airport, provided by AirNav.

Pilot Services

We have fuel services, on-site repair and maintenance, 24-hour security and more.

Fuel Points

Russell Regional Airport is a Shell Aviation merchant and is proud to participate in the Shell Aero Class Rewards program!

Hangar Availability

RMG offers 66 various sized T-Hangars for tenants and visitors (upon availability). Below, you will find the sizes of the hangars offered at RMG. If […]

Today's Fuel Prices

Jet A $3.53 / gallon
AvGas (100LL) $4.24 / gallon
Self Serve AvGas $3.84 / gallon
Learn about fuel points program